SCP
0 0 -0 -1 -0 -0 0 -1 -0 0 0 0 0 0 0 0 0 0 0 0 0 0 0 0 0 0 0 0 0 0 0 0 0
-0 0 -1 -1 -0 -0 1 -1 -0 0 0 0 0 0 0 0 0 0 0 0 0 0 0 0 0 0 0 0 0 0 0 0 0
-0 -0 -1 -1 -0 -1 0 -0 0 0 0 0 0 0 0 0 0 0 0 0 0 0 0 0 0 0 0 0 0 0 0 0 0
-1 -1 -2 -1 -1 -0 0 0 0 0 0 0 0 0 0 0 0 0 0 0 0 0 0 0 0 0 0 0 0 0 0 0 0
-1 -1 -2 -1 -1 -0 0 0 0 0 0 0 0 0 0 0 0 0 0 0 0 0 0 0 0 0 0 0 0 0 0 0 0
2 -0 -2 -0 -0 0 -0 0 0 0 0 0 0 0 0 0 0 0 0 0 0 0 0 0 0 0 0 0 0 0 0 0 0
-0 -0 -1 -0 -0 0 -0 -0 0 0 0 0 0 0 0 0 0 0 0 0 0 0 0 0 0 0 0 0 0 0 0 0 0
-0 -0 0 -0 -1 0 0 0 0 0 0 0 0 0 0 0 0 0 0 0 0 0 0 0 0 0 0 0 0 0 0 0 0
1 -0 -0 0 -0 -0 0 0 0 0 0 0 0 0 0 0 0 0 0 0 0 0 0 0 0 0 0 0 0 0 0 0 0
1 1 2 1 1 1 0 0 0 0 0 0 0 0 0 0 0 0 0 0 0 0 0 0 0 0 0 0 0 0 0 0 0
2 3 1 0 0 0 0 0 0 0 0 0 0 0 0 0 0 0 0 0 0 0 0 0 0 0 0 0 0 0 0 0 0
2 -1 1 1 0 0 0 0 0 0 0 0 0 0 0 0 0 0 0 0 0 0 0 0 0 0 0 0 0 0 0 0 0
2 3 2 1 0 0 0 0 0 0 0 0 0 0 0 0 0 0 0 0 0 0 0 0 0 0 0 0 0 0 0 -0 0
2 3 2 1 0 0 0 0 0 0 0 0 0 0 0 0 0 0 0 0 0 0 0 0 0 0 0 0 0 0 -0 -0 -0
4 1 1 1 0 0 0 0 0 0 0 0 0 0 0 0 0 0 0 0 0 0 0 0 0 0 0 0 0 0 0 -0 -0
3 -0 1 -0 0 0 0 0 0 0 0 0 0 0 0 0 0 0 0 0 0 0 0 0 0 0 0 0 0 0 0 0 0
-0 0 0 0 0 0 0 0 0 0 0 0 0 0 0 0 0 0 0 0 0 0 0 0 0 0 0 0 0 0 0 0 0
-0 0 0 0 0 0 0 0 0 0 0 0 0 0 0 0 0 0 0 0 0 0 0 0 0 0 0 0 0 0 0 0 0
1 0 -0 0 0 0 0 0 0 0 0 0 0 0 0 0 0 0 0 -0 -0 -0 0 0 0 -0 0 0 0 0 0 0 0
-0 -0 -0 -0 0 0 0 0 0 0 0 0 0 0 0 0 0 0 0 -0 0 0 0 0 0 0 0 0 0 0 0 0 0
Wind_Speed_500mb
30 63 68 81 67 57 46 40 47 42 40 34 35 38 30 31 23 19 21 19 18 18 23 24 22 22 20 20 22 17 11 8 10
84 43 78 82 67 58 54 48 40 38 28 28 35 31 28 28 25 24 22 21 22 22 25 25 20 16 17 17 19 17 8 8 9
56 77 79 70 64 64 55 55 49 34 22 29 29 28 22 16 21 22 19 16 21 21 18 17 15 14 14 15 16 11 8 4 8
85 78 82 75 75 69 63 51 41 29 30 33 32 29 25 26 22 17 12 11 13 12 10 9 10 10 7 11 15 15 13 11 16
72 78 79 74 76 72 60 49 43 36 38 41 38 38 31 27 20 14 10 8 6 6 4 5 9 8 9 15 17 16 13 18 17
70 73 69 72 67 61 57 51 44 39 42 48 42 33 29 22 18 13 10 9 7 4 4 4 6 3 11 19 20 17 16 20 16
73 79 77 70 62 62 60 50 43 46 52 44 34 35 32 30 23 17 13 8 5 7 6 7 10 6 13 21 21 21 20 21 26
65 74 77 78 69 69 59 52 47 52 48 43 44 46 34 28 23 20 14 8 5 8 10 14 20 19 18 19 19 23 22 25 23
47 74 81 76 74 68 57 53 54 55 51 49 44 41 30 22 17 16 15 12 12 15 16 14 18 19 24 25 24 24 22 25 23
66 68 72 71 74 66 61 53 60 61 56 51 43 36 24 18 17 16 16 17 17 16 15 14 14 16 22 28 27 20 18 17 21
64 65 66 70 69 64 65 62 61 60 53 45 39 29 22 20 19 18 21 19 17 14 14 15 19 18 23 30 34 33 21 9 6
89 91 93 77 69 63 60 65 65 58 49 44 35 29 22 23 20 21 22 21 17 14 15 11 10 14 15 25 27 32 37 29 15
88 85 89 80 68 59 71 71 60 53 48 40 33 27 22 23 19 20 23 19 15 16 14 8 2 5 8 13 11 19 29 39 27
77 96 91 78 69 77 82 71 56 53 43 36 30 24 24 25 21 22 18 16 16 17 17 21 10 6 3 5 5 5 20 32 31
43 87 80 77 86 87 81 66 56 52 42 35 31 25 28 31 25 23 15 15 17 20 19 11 4 6 10 16 18 8 12 23 24
52 39 65 79 85 81 68 58 48 47 42 36 31 26 29 30 28 23 11 19 25 18 10 5 15 8 12 1 2 12 12 24 25
59 89 87 81 83 75 63 51 46 41 37 33 31 30 31 37 36 23 18 25 19 4 6 3 11 20 13 6 9 8 18 22 25
91 93 86 83 73 65 57 50 47 41 33 33 33 30 31 31 30 29 30 25 14 8 7 3 14 13 9 8 12 13 17 19 22
99 89 85 76 64 58 58 55 49 40 33 35 39 33 31 30 23 21 28 24 20 17 11 9 7 7 5 6 11 14 20 18 20
88 85 79 69 67 66 60 53 45 36 38 40 35 32 32 28 22 19 16 22 25 24 17 26 25 19 13 12 12 21 27 26 24
Wind_Direction_500mb
249 268 192 174 177 164 170 166 169 174 190 209 205 201 220 217 240 217 203 211 215 221 248 261 274 285 298 300 299 327 319 236 246
225 220 173 170 169 168 168 177 185 197 203 216 200 213 217 230 213 214 215 215 225 230 246 268 287 297 298 311 320 332 338 284 296
201 180 166 162 159 171 174 174 179 185 200 192 194 191 188 191 189 214 222 216 233 246 259 275 291 302 311 315 327 1 41 44 18
161 164 155 160 168 170 173 179 185 190 190 174 179 181 179 178 182 195 207 220 239 259 288 309 328 337 332 348 7 18 37 49 45
159 157 160 167 167 170 173 180 181 193 181 171 170 169 178 172 179 186 214 229 250 294 301 347 56 65 20 22 32 49 75 65 54
145 150 153 155 166 170 176 180 179 183 171 172 180 185 175 170 177 192 206 229 259 230 168 127 114 123 37 41 51 74 73 68 60
144 149 157 158 166 171 174 175 171 164 165 178 170 166 170 172 183 207 215 218 179 140 122 108 96 75 47 56 67 86 77 64 49
148 154 157 161 163 170 173 171 167 164 173 181 176 183 194 200 201 213 226 214 170 116 117 99 92 81 60 57 73 78 69 66 44
184 160 162 166 170 174 173 175 171 172 180 183 187 198 205 206 206 200 186 168 139 124 115 99 93 86 65 60 63 67 69 61 44
188 161 157 167 172 178 176 179 175 181 186 188 198 199 196 198 192 180 169 154 143 129 117 104 89 79 79 63 62 65 70 68 50
167 160 170 178 177 179 178 178 183 184 193 196 195 195 195 190 184 172 161 153 144 131 113 98 81 71 72 65 57 47 39 34 69
174 185 175 175 182 185 179 177 187 191 196 194 192 195 188 184 180 169 161 152 147 132 106 85 58 43 91 57 54 44 36 31 34
180 177 173 171 176 178 175 181 188 193 194 193 195 193 182 178 176 172 164 165 164 153 135 116 95 334 50 70 40 36 31 26 28
172 173 167 171 177 177 180 182 188 190 189 193 191 186 179 180 182 170 172 164 150 147 115 100 116 146 221 305 311 1 30 20 19
148 149 158 164 171 178 180 183 189 186 183 192 194 190 185 184 182 176 170 161 145 145 133 119 105 317 299 279 272 255 26 12 12
108 225 164 170 171 172 175 183 190 177 182 192 199 189 184 175 168 159 181 158 135 139 144 288 331 325 322 122 177 195 353 350 346
185 180 171 169 170 169 172 183 187 188 183 194 200 186 171 158 160 176 181 154 155 166 291 231 281 269 259 346 89 325 323 334 332
162 159 165 169 172 172 175 183 191 187 183 199 188 177 168 170 179 188 172 163 164 194 265 94 91 84 101 82 234 269 291 310 324
158 158 166 169 176 183 183 186 191 184 193 190 182 174 169 161 145 158 160 168 182 193 244 227 231 252 299 320 316 290 283 302 318
159 167 173 185 188 185 183 189 190 184 185 177 177 168 162 168 183 199 197 208 219 231 273 261 247 259 298 302 316 301 287 290 299
Wind_Speed_850mb
30 63 68 81 67 57 46 40 47 42 40 34 35 38 30 31 23 19 21 19 18 18 23 24 22 22 20 20 22 17 11 8 10
84 43 78 82 67 58 54 48 40 38 28 28 35 31 28 28 25 24 22 21 22 22 25 25 20 16 17 17 19 17 8 8 9
56 77 79 70 64 64 55 55 49 34 22 29 29 28 22 16 21 22 19 16 21 21 18 17 15 14 14 15 16 11 8 4 8
85 78 82 75 75 69 63 51 41 29 30 33 32 29 25 26 22 17 12 11 13 12 10 9 10 10 7 11 15 15 13 11 16
72 78 79 74 76 72 60 49 43 36 38 41 38 38 31 27 20 14 10 8 6 6 4 5 9 8 9 15 17 16 13 18 17
70 73 69 72 67 61 57 51 44 39 42 48 42 33 29 22 18 13 10 9 7 4 4 4 6 3 11 19 20 17 16 20 16
73 79 77 70 62 62 60 50 43 46 52 44 34 35 32 30 23 17 13 8 5 7 6 7 10 6 13 21 21 21 20 21 26
65 74 77 78 69 69 59 52 47 52 48 43 44 46 34 28 23 20 14 8 5 8 10 14 20 19 18 19 19 23 22 25 23
47 74 81 76 74 68 57 53 54 55 51 49 44 41 30 22 17 16 15 12 12 15 16 14 18 19 24 25 24 24 22 25 23
66 68 72 71 74 66 61 53 60 61 56 51 43 36 24 18 17 16 16 17 17 16 15 14 14 16 22 28 27 20 18 17 21
64 65 66 70 69 64 65 62 61 60 53 45 39 29 22 20 19 18 21 19 17 14 14 15 19 18 23 30 34 33 21 9 6
89 91 93 77 69 63 60 65 65 58 49 44 35 29 22 23 20 21 22 21 17 14 15 11 10 14 15 25 27 32 37 29 15
88 85 89 80 68 59 71 71 60 53 48 40 33 27 22 23 19 20 23 19 15 16 14 8 2 5 8 13 11 19 29 39 27
77 96 91 78 69 77 82 71 56 53 43 36 30 24 24 25 21 22 18 16 16 17 17 21 10 6 3 5 5 5 20 32 31
43 87 80 77 86 87 81 66 56 52 42 35 31 25 28 31 25 23 15 15 17 20 19 11 4 6 10 16 18 8 12 23 24
52 39 65 79 85 81 68 58 48 47 42 36 31 26 29 30 28 23 11 19 25 18 10 5 15 8 12 1 2 12 12 24 25
59 89 87 81 83 75 63 51 46 41 37 33 31 30 31 37 36 23 18 25 19 4 6 3 11 20 13 6 9 8 18 22 25
91 93 86 83 73 65 57 50 47 41 33 33 33 30 31 31 30 29 30 25 14 8 7 3 14 13 9 8 12 13 17 19 22
99 89 85 76 64 58 58 55 49 40 33 35 39 33 31 30 23 21 28 24 20 17 11 9 7 7 5 6 11 14 20 18 20
88 85 79 69 67 66 60 53 45 36 38 40 35 32 32 28 22 19 16 22 25 24 17 26 25 19 13 12 12 21 27 26 24
Wind_Direction_850mb
249 268 192 174 177 164 170 166 169 174 190 209 205 201 220 217 240 217 203 211 215 221 248 261 274 285 298 300 299 327 319 236 246
225 220 173 170 169 168 168 177 185 197 203 216 200 213 217 230 213 214 215 215 225 230 246 268 287 297 298 311 320 332 338 284 296
201 180 166 162 159 171 174 174 179 185 200 192 194 191 188 191 189 214 222 216 233 246 259 275 291 302 311 315 327 1 41 44 18
161 164 155 160 168 170 173 179 185 190 190 174 179 181 179 178 182 195 207 220 239 259 288 309 328 337 332 348 7 18 37 49 45
159 157 160 167 167 170 173 180 181 193 181 171 170 169 178 172 179 186 214 229 250 294 301 347 56 65 20 22 32 49 75 65 54
145 150 153 155 166 170 176 180 179 183 171 172 180 185 175 170 177 192 206 229 259 230 168 127 114 123 37 41 51 74 73 68 60
144 149 157 158 166 171 174 175 171 164 165 178 170 166 170 172 183 207 215 218 179 140 122 108 96 75 47 56 67 86 77 64 49
148 154 157 161 163 170 173 171 167 164 173 181 176 183 194 200 201 213 226 214 170 116 117 99 92 81 60 57 73 78 69 66 44
184 160 162 166 170 174 173 175 171 172 180 183 187 198 205 206 206 200 186 168 139 124 115 99 93 86 65 60 63 67 69 61 44
188 161 157 167 172 178 176 179 175 181 186 188 198 199 196 198 192 180 169 154 143 129 117 104 89 79 79 63 62 65 70 68 50
167 160 170 178 177 179 178 178 183 184 193 196 195 195 195 190 184 172 161 153 144 131 113 98 81 71 72 65 57 47 39 34 69
174 185 175 175 182 185 179 177 187 191 196 194 192 195 188 184 180 169 161 152 147 132 106 85 58 43 91 57 54 44 36 31 34
180 177 173 171 176 178 175 181 188 193 194 193 195 193 182 178 176 172 164 165 164 153 135 116 95 334 50 70 40 36 31 26 28
172 173 167 171 177 177 180 182 188 190 189 193 191 186 179 180 182 170 172 164 150 147 115 100 116 146 221 305 311 1 30 20 19
148 149 158 164 171 178 180 183 189 186 183 192 194 190 185 184 182 176 170 161 145 145 133 119 105 317 299 279 272 255 26 12 12
108 225 164 170 171 172 175 183 190 177 182 192 199 189 184 175 168 159 181 158 135 139 144 288 331 325 322 122 177 195 353 350 346
185 180 171 169 170 169 172 183 187 188 183 194 200 186 171 158 160 176 181 154 155 166 291 231 281 269 259 346 89 325 323 334 332
162 159 165 169 172 172 175 183 191 187 183 199 188 177 168 170 179 188 172 163 164 194 265 94 91 84 101 82 234 269 291 310 324
158 158 166 169 176 183 183 186 191 184 193 190 182 174 169 161 145 158 160 168 182 193 244 227 231 252 299 320 316 290 283 302 318
159 167 173 185 188 185 183 189 190 184 185 177 177 168 162 168 183 199 197 208 219 231 273 261 247 259 298 302 316 301 287 290 299